Location: All Nations United Methodist Church
(33.0215°N, 96.7483°W)
Time: 15:27:36
(UTC+00:00)

ERS-2 - Pass Details

Date: 24 January 2021
Orbit: 492 x 497 km, 98.6° (Epoch: 06 March)

Event Time Altitude Azimuth Distance (km) Brightness Sun altitude
Rises 12:37:24 0° 190° (S) 2,568 5.8 -10.6°
Reaches altitude 10° 12:39:42 10° 203° (SSW) 1,689 4.7 -10.2°
Maximum altitude 12:42:47 26° 261° (W) 998 3.1 -9.5°
Drops below altitude 10° 12:45:55 10° 320° (NW) 1,698 4.3 -8.9°
Enters shadow 12:47:00 - 328° (NNW) 2,104 4.8 -8.7°
